BMCB-37 Weather Reports


time (UTC)temp
F
wind
direction
speed
knots
gust
knots
rain 1hr
in
rain 24hr
in
rain mn
in
humidity
%
barometer
mb
20260507174026 57 0 0.0 0.0 0.00 0.00 0.00 73 1018.9
20260507173035 57 0 0.0 0.0 0.00 0.00 0.00 72 1018.9
20260507172040 57 0 0.0 0.0 0.00 0.00 0.00 74 1018.8
20260507171036 58 0 0.0 0.0 0.00 0.00 0.00 71 1018.8
20260507170042 58 0 0.0 0.0 0.00 0.00 0.00 71 1018.8
20260507164043 58 0 0.0 0.0 0.00 0.00 0.00 70 1018.7
20260507162023 58 0 0.0 0.0 0.00 0.00 0.00 68 1018.8
20260507161039 58 0 0.0 0.0 0.00 0.00 0.00 69 1018.8
20260507160039 58 0 0.0 0.0 0.00 0.00 0.00 72 1018.8
20260507155034 58 0 0.0 0.0 0.00 0.00 0.00 72 1018.8
20260507154040 58 0 0.0 0.0 0.00 0.00 0.00 74 1018.8
20260507152021 57 0 0.0 0.0 0.00 0.00 0.00 72 1018.8
20260507151020 57 0 0.0 0.0 0.00 0.00 0.00 71 1018.8
20260507145030 57 0 0.0 0.0 0.00 0.00 0.00 70 1018.8
20260507142036 59 0 0.0 0.0 0.00 0.00 0.00 66 1018.8
20260507141036 59 0 0.0 0.0 0.00 0.00 0.00 64 1018.8
20260507140022 60 0 0.0 0.0 0.00 0.00 0.00 63 1018.9
20260507135039 60 0 0.0 0.0 0.00 0.00 0.00 61 1018.9
20260507131036 59 0 0.0 0.0 0.00 0.00 0.00 56 1018.9
20260507130035 60 0 0.0 0.0 0.00 0.00 0.00 57 1018.9
20260507125036 60 0 0.0 0.0 0.00 0.00 0.00 56 1018.9
20260507124020 60 0 0.0 0.0 0.00 0.00 0.00 56 1018.8
20260507123022 60 0 0.0 0.0 0.00 0.00 0.00 60 1018.8
20260507120020 60 0 0.0 0.0 0.00 0.00 0.00 54 1018.8
20260507115036 60 0 0.0 0.0 0.00 0.00 0.00 56 1018.8
20260507113020 60 0 0.0 0.0 0.00 0.00 0.00 59 1018.9
20260507111037 59 0 0.0 0.0 0.00 0.00 0.00 57 1018.9
20260507105036 58 0 0.0 0.0 0.00 0.00 0.00 64 1018.9
20260507103037 59 0 0.0 0.0 0.00 0.00 0.00 65 1019.0
20260507102039 58 0 0.0 0.0 0.00 0.00 0.00 70 1018.9
20260507101035 57 0 0.0 0.0 0.00 0.00 0.00 68 1018.9
20260507100036 57 0 0.0 0.0 0.00 0.00 0.00 73 1018.8
20260507093021 56 0 0.0 0.0 0.00 0.00 0.00 71 1018.8
20260507091020 56 0 0.0 0.0 0.00 0.00 0.00 75 1018.7
20260507090021 55 0 0.0 0.0 0.00 0.00 0.00 75 1018.8
20260507085039 55 0 0.0 0.0 0.00 0.00 0.00 76 1018.7
20260507083021 55 0 0.0 0.0 0.00 0.00 0.00 79 1018.6
20260507082023 54 0 0.0 0.0 0.00 0.00 0.00 80 1018.5
20260507081036 54 0 0.0 0.0 0.00 0.00 0.00 80 1018.4
20260507080039 54 0 0.0 0.0 0.00 0.01 0.00 80 1018.4
20260507075035 53 0 0.0 0.0 0.00 0.01 0.00 80 1018.4
20260507072037 53 0 0.0 0.0 0.00 0.03 0.00 82 1018.2
20260507071034 52 0 0.0 0.0 0.00 0.03 0.00 82 1018.2
20260507070034 53 0 0.0 0.0 0.00 0.03 0.00 81 1018.2
20260507065024 52 0 0.0 0.0 0.00 0.03 0.00 82 1018.1
20260507064022 52 0 0.0 0.0 0.00 0.04 0.00 84 1018.1
20260507062033 51 0 0.0 0.0 0.00 0.06 0.00 89 1017.9
20260507061034 50 0 0.0 0.0 0.00 0.06 0.00 90 1017.8
20260507060040 50 0 0.0 0.0 0.00 0.06 0.00 93 1017.8
20260507055034 49 0 0.0 0.0 0.00 0.08 0.00 94 1017.7
20260507054038 49 0 0.0 0.0 0.00 0.08 0.00 95 1017.6
20260507052039 48 0 0.0 0.0 0.00 0.09 0.00 94 1017.5
20260507051022 48 0 0.0 0.0 0.00 0.09 0.00 94 1017.4
20260507050023 48 0 0.0 0.0 0.00 0.09 0.00 95 1017.3
20260507045039 48 0 0.0 0.0 0.00 0.09 0.00 95 1017.2
20260507044036 48 0 0.0 0.0 0.00 0.09 0.00 95 1017.0
20260507043035 48 0 0.0 0.0 0.00 0.09 0.00 95 1017.0
20260507042039 48 0 0.0 0.0 0.00 0.09 0.00 96 1016.9
20260507034043 48 0 0.0 0.0 0.00 0.14 0.00 96 1016.6
20260507024037 48 0 0.0 0.0 0.00 0.14 0.00 98 1016.5
20260507023040 48 0 0.0 0.0 0.00 0.14 0.00 98 1016.4
20260507022039 48 0 0.0 0.0 0.00 0.14 0.00 98 1016.3
20260507012034 48 0 0.0 0.0 0.00 0.17 0.00 97 1016.2
20260507010039 48 0 0.0 0.0 0.00 0.20 0.00 97 1016.2
20260507003022 48 0 0.0 0.0 0.00 0.22 0.00 95 1016.1
20260506234037 48 0 0.0 0.0 0.00 0.28 0.00 96 1015.9
20260506231038 48 0 0.0 0.0 0.00 0.32 0.00 97 1015.7
20260506230038 48 0 0.0 0.0 0.00 0.34 0.00 96 1015.6
20260506225037 48 0 0.0 0.0 0.00 0.35 0.00 96 1015.5
20260506224039 48 0 0.0 0.0 0.00 0.37 0.00 96 1015.4
20260506223036 48 0 0.0 0.0 0.00 0.40 0.00 96 1015.4
20260506222037 48 0 0.0 0.0 0.00 0.41 0.00 96 1015.3
20260506221037 48 0 0.0 0.0 0.00 0.43 0.00 96 1015.2
20260506215037 48 0 0.0 0.0 0.00 0.45 0.43 96 1015.1
20260506212031 48 0 0.0 0.0 0.00 0.46 0.43 95 1015.0
20260506210032 49 0 0.0 0.0 0.00 0.49 0.43 94 1014.9
20260506205042 49 0 0.0 0.0 0.00 0.49 0.43 94 1014.8
20260506203038 49 0 0.0 0.0 0.00 0.51 0.43 93 1014.8
20260506202050 49 0 0.0 0.0 0.00 0.54 0.43 93 1014.7
20260506201039 49 0 0.0 0.0 0.00 0.54 0.43 92 1014.7
20260506200040 50 0 0.0 0.0 0.00 0.57 0.43 91 1014.6
20260506195033 50 0 0.0 0.0 0.00 0.57 0.43 91 1014.4
20260506194037 50 0 0.0 0.0 0.00 0.59 0.43 90 1014.3
20260506190043 51 0 0.0 0.0 0.00 0.65 0.43 86 1013.8
20260506185038 51 0 0.0 0.0 0.00 0.65 0.43 86 1013.7
20260506184036 52 0 0.0 0.0 0.00 0.66 0.43 86 1013.6
20260506183042 53 0 0.0 0.0 0.00 0.66 0.43 83 1013.5